{"data":{"norad_id":65065,"intl_designator":"2025-165K","name":"STARLINK-34806","alt_names":[],"object_type":"PAYLOAD","status":"ACTIVE","operator":null,"country":"US","launch_date":"2025-07-31","launch_site_code":"AFWTR","launch_vehicle":null,"mission":null,"orbit_class":"UNKNOWN","rcs_meters":null,"size_class":null,"mass_kg":null,"dimensions":null,"purposes":["comms"],"wikipedia_slug":null,"has_3d_model":false,"image_url":null,"decayed_at":null,"tle_current":{"epoch":"2026-05-25T03:56:28.784256Z","epoch_age_seconds":54761,"freshness":"FRESH","line1":"1 65065U 25165K   26145.16422204  .00004304  00000+0  30209-3 0  9997","line2":"2 65065  97.4484 222.1804 0001086 195.7557 164.3636 15.05659896 46297","mean_motion":15.05659896,"eccentricity":0.0001086,"inclination_deg":97.4484,"raan_deg":222.1804,"arg_perigee_deg":195.7557,"mean_anomaly_deg":164.3636,"bstar":0.00030209,"rev_number":4629,"period_min":95.639128320118,"perigee_km":548.72845991348,"apogee_km":550.23313849947,"semimajor_km":6927.6177992065,"source":"CELESTRAK","updated_at":"2026-05-25T13:38:20.678098Z"}}}